Wind_Speed
21 23 25 25 24 24 24 26 27 29 29 30 31 30 29 28 27 28 28 28 29 29 29 28 29 30 30 30 30 30 30 30 30 31 32 33 33 34 35 36 41 46 50 51 51 51 51 50 50 50 49 50 51 52 52 49 48 48 46 45 45 41 37 38 42 44 45 43 40 35 29 24 25 27 31 34 34 32 30 29 28 28 29 27 24
21 23 24 25 25 24 24 24 25 28 30 32 33 33 32 30 30 31 31 30 31 32 31 31 31 31 32 31 31 31 31 31 31 32 33 34 34 34 34 35 38 42 46 49 50 50 49 48 48 48 48 49 50 51 49 47 46 45 43 44 44 40 37 38 41 44 44 42 39 34 28 23 25 28 30 32 32 31 30 30 30 30 28 25 23
24 25 26 26 26 25 25 24 24 26 29 31 33 34 35 35 35 35 35 34 35 35 35 35 34 34 33 33 32 32 33 33 33 33 34 34 34 35 35 36 37 39 43 46 48 48 48 49 49 48 47 48 48 46 44 43 44 44 43 42 39 37 37 39 42 43 42 40 37 33 28 25 26 28 30 30 30 31 31 31 30 27 24 22 22
24 25 27 27 27 27 26 26 26 26 27 29 32 34 35 36 37 38 38 38 38 38 38 38 38 37 36 34 34 34 34 34 33 34 34 34 35 35 36 36 36 37 39 42 44 45 47 49 48 45 45 45 45 43 42 42 42 43 42 38 35 37 39 40 41 41 40 39 36 31 27 26 28 29 30 31 31 32 31 29 26 22 21 21 22
22 23 24 26 26 27 28 28 29 29 28 28 29 31 33 35 35 36 37 38 38 38 39 40 40 40 39 37 36 36 35 34 34 34 34 34 35 35 36 36 35 36 37 39 40 41 43 44 43 42 43 44 44 42 42 42 42 42 40 36 36 38 39 39 39 39 39 39 36 30 26 27 29 29 31 31 31 31 28 24 21 20 20 21 22
21 22 22 23 24 24 25 27 29 30 30 29 28 28 30 31 33 34 34 35 37 37 38 40 41 42 41 40 39 38 37 36 35 35 35 35 35 36 36 36 36 36 37 37 38 39 40 42 42 42 43 43 42 40 40 41 41 41 40 37 36 37 38 39 38 37 38 38 35 30 27 28 29 30 31 31 29 27 24 21 20 20 21 21 21
22 22 22 22 22 21 22 23 25 28 29 30 30 30 30 31 32 33 34 35 37 38 39 40 41 42 42 41 41 40 39 37 36 36 36 36 36 36 36 36 36 36 36 36 37 38 39 40 39 39 39 39 39 38 37 38 39 39 38 37 36 36 38 38 37 36 38 37 33 28 26 27 29 30 31 30 28 23 21 20 20 21 22 21 20
23 24 23 23 22 22 23 24 25 27 28 29 30 31 32 33 34 34 35 37 38 39 40 40 41 43 43 42 42 41 40 39 37 37 37 38 37 36 35 36 36 35 35 36 37 38 38 37 36 36 36 36 36 36 36 36 36 36 36 36 35 36 37 36 35 35 37 35 31 27 25 27 31 32 31 30 26 22 20 21 21 21 21 19 17
27 26 26 26 26 26 27 27 28 29 30 30 30 31 32 33 34 36 37 38 39 39 40 41 41 43 43 43 42 41 41 41 38 37 38 38 38 37 35 35 35 36 37 37 37 37 38 38 39 38 37 35 34 34 36 36 35 34 34 34 34 35 34 33 33 34 34 33 29 26 26 29 32 33 30 26 22 20 20 21 21 20 18 16 14
32 31 31 31 31 31 32 31 32 32 32 33 33 33 33 33 34 35 36 38 39 39 40 41 41 42 43 43 42 41 41 41 38 37 38 38 37 37 36 35 35 36 38 38 38 37 37 37 38 37 36 35 34 35 35 35 34 33 33 32 31 31 31 32 33 33 33 33 29 27 28 32 33 30 25 21 20 21 20 19 19 16 14 13 12
37 37 36 36 36 37 37 37 37 36 36 36 36 36 36 37 37 37 36 37 37 38 39 40 40 40 41 42 43 42 41 40 38 37 37 37 37 37 37 36 36 36 38 38 38 37 37 37 36 37 36 36 36 36 36 34 33 33 31 29 28 28 29 31 32 33 33 31 28 26 27 29 28 24 22 20 20 20 17 16 15 13 12 12 11
39 39 39 39 39 40 40 41 41 40 39 38 38 38 38 38 39 40 40 39 38 38 38 39 39 39 39 40 42 41 40 38 37 37 37 36 36 36 37 37 36 35 36 37 36 36 36 36 36 37 38 38 37 37 36 34 33 31 27 25 26 26 28 29 30 31 32 30 28 27 26 24 22 21 20 19 18 16 15 13 13 12 11 12 12
37 38 39 40 41 41 42 44 45 45 43 42 41 40 39 39 38 39 40 41 41 41 40 38 37 37 37 39 40 40 39 38 36 36 35 35 35 35 36 36 35 34 34 34 35 35 34 35 36 37 38 38 38 37 35 31 30 27 24 23 25 27 29 29 27 27 28 29 28 26 22 18 16 16 17 16 14 14 13 13 13 12 11 12 13
36 37 37 38 39 40 42 44 46 46 45 44 43 43 42 41 39 38 38 39 41 42 41 40 38 36 36 37 38 39 38 37 35 34 34 34 34 34 35 35 34 34 34 34 34 34 34 35 36 36 35 35 35 34 32 29 27 25 24 24 26 28 29 27 23 22 24 25 23 19 17 15 13 13 14 14 12 13 13 13 12 12 12 12 13
35 36 37 37 38 38 39 41 43 44 44 43 43 43 43 42 41 39 38 39 40 41 41 41 40 37 36 36 37 39 38 36 34 33 33 33 32 32 34 33 32 32 33 33 33 34 34 36 36 35 34 32 30 29 28 27 25 24 26 27 29 29 26 23 21 22 22 21 18 15 15 14 12 11 12 12 12 13 13 12 11 12 12 13 13
36 36 37 37 38 38 38 39 40 41 42 42 42 42 42 42 42 40 39 39 39 40 40 40 39 38 36 36 37 38 37 35 33 32 32 31 31 31 31 31 31 31 32 32 32 33 34 36 36 34 31 28 25 24 25 25 25 26 29 30 29 27 24 22 22 21 20 18 15 13 12 11 11 11 12 14 14 14 12 11 11 12 12 13 13
36 37 37 38 38 38 38 38 39 40 41 42 42 42 42 42 43 42 42 40 39 39 40 39 38 37 37 37 37 37 36 33 31 30 30 30 30 30 30 31 32 32 32 32 33 34 35 34 32 30 28 25 23 23 24 25 26 29 31 30 28 26 26 25 23 20 17 14 12 11 10 10 11 13 14 15 14 12 11 10 11 12 13 13 13
37 38 38 38 39 39 40 40 40 40 41 42 42 42 42 43 43 44 44 43 41 39 39 39 38 37 37 36 36 36 34 32 29 29 29 28 28 28 29 31 32 32 32 32 33 33 32 31 29 29 28 26 24 23 22 24 28 32 31 29 29 30 29 26 22 18 15 13 11 11 10 11 13 15 15 14 11 10 10 10 11 12 13 13 13
36 37 38 39 39 40 40 41 41 41 42 42 43 43 42 42 43 43 43 43 42 41 39 39 39 38 36 36 35 34 33 30 28 28 27 26 26 27 29 31 32 32 31 31 31 32 32 31 32 31 28 24 22 21 22 24 29 32 30 30 32 32 28 23 19 16 14 11 10 10 10 12 14 15 13 11 10 10 10 10 11 12 12 13 12
35 36 37 38 39 39 40 41 41 42 42 43 43 44 44 43 42 42 42 42 42 42 41 40 39 37 36 34 33 32 31 29 27 26 25 25 26 27 29 31 32 31 29 29 30 32 33 33 33 31 26 22 20 21 23 26 29 30 30 33 35 32 25 20 16 12 10 9 9 10 11 13 14 12 11 11 11 11 10 11 11 12 12 12 11
34 35 36 37 38 38 39 40 41 41 42 43 44 44 45 45 43 42 41 41 42 42 41 40 39 37 35 33 32 31 30 28 26 25 26 26 28 29 30 30 30 30 30 30 31 32 31 30 29 28 24 21 20 21 23 25 27 29 30 32 31 27 20 16 13 11 10 9 9 10 12 13 12 12 12 12 11 11 11 11 12 12 12 11 10
35 36 36 37 38 38 38 39 40 41 42 42 43 44 44 45 45 44 42 41 41 41 40 39 38 37 35 33 32 30 29 28 27 26 27 27 28 30 30 29 29 30 31 30 30 29 27 26 25 24 22 22 21 20 21 24 27 31 32 29 25 20 16 13 12 11 10 9 10 11 12 12 13 13 13 12 11 11 11 12 12 12 11 10 9
37 37 38 38 38 38 38 39 39 41 42 42 42 42 42 43 44 44 42 41 40 39 39 38 37 36 35 33 31 29 29 28 27 27 27 27 28 29 29 29 29 29 28 27 26 24 24 24 22 20 20 21 20 19 23 28 32 34 31 25 20 17 16 15 13 11 10 10 11 12 13 13 14 14 13 12 11 11 12 12 12 11 10 9 8
40 40 39 39 39 39 39 38 39 41 42 42 42 41 41 41 41 42 41 40 39 38 38 36 36 35 34 32 30 29 28 27 25 25 26 27 28 28 28 28 27 26 25 24 22 22 22 21 19 18 19 20 20 24 29 33 35 33 28 22 20 19 18 16 13 11 10 11 12 13 14 14 14 13 12 12 12 12 12 12 12 10 8 8 9
42 42 42 42 41 41 40 39 39 41 42 42 42 41 40 39 39 39 38 38 37 36 36 35 34 34 33 31 29 27 26 24 23 24 25 26 26 26 26 25 24 24 23 22 21 20 19 16 16 18 20 21 24 30 34 35 33 29 25 22 22 21 17 14 12 11 11 12 13 14 14 15 15 14 13 13 13 13 13 11 10 8 8 9 10
43 43 44 43 42 42 42 41 41 41 41 42 42 41 40 38 36 36 35 35 34 34 33 33 33 32 32 30 28 26 24 23 23 23 24 25 25 25 24 23 22 21 20 19 18 17 15 15 17 20 22 26 31 36 36 33 29 26 24 24 22 19 16 14 13 12 12 13 13 14 15 16 16 14 14 14 14 13 12 10 9 9 9 10 11
43 43 44 44 43 42 42 42 41 41 41 41 40 40 38 35 34 33 32 32 31 30 30 30 30 31 30 30 28 26 24 24 23 24 24 25 24 24 24 23 22 20 19 17 17 16 16 17 19 21 24 29 34 36 34 30 27 26 25 23 20 17 15 14 13 12 12 13 14 16 18 18 16 15 15 14 14 13 11 10 9 9 10 11 12
43 43 43 43 43 41 40 40 40 40 41 40 39 38 36 33 31 30 29 28 28 27 26 26 26 28 29 29 28 28 27 26 25 24 24 24 24 23 23 22 21 20 19 18 18 18 18 20 23 25 27 31 35 35 32 28 27 27 25 22 20 18 16 15 14 14 14 15 17 19 19 18 16 15 15 14 14 13 12 10 10 10 11 11 12
43 42 42 42 42 40 39 40 40 40 41 41 38 35 33 31 29 27 26 26 26 26 25 24 23 25 26 27 28 29 28 27 25 24 23 22 22 21 20 19 18 18 18 18 19 20 23 26 29 31 33 35 38 37 33 30 28 27 24 23 22 20 18 16 16 16 17 19 21 20 19 17 16 16 16 15 14 13 12 11 11 11 11 12 13
44 43 41 40 40 39 39 39 40 41 42 41 38 35 31 29 27 26 25 25 26 26 25 24 23 23 24 25 25 27 27 26 24 23 21 19 17 16 16 15 16 17 18 19 21 24 28 32 35 35 37 40 42 40 36 33 31 29 26 25 23 20 18 17 16 17 18 20 21 19 17 16 16 16 16 15 15 14 13 12 12 12 12 13 14
43 42 40 39 37 37 37 38 39 40 41 41 39 35 32 28 26 25 25 25 26 26 25 24 23 23 22 21 20 21 23 22 20 19 18 15 14 14 14 14 15 17 19 20 23 26 31 34 36 36 38 42 43 40 35 32 30 29 27 26 23 20 18 18 18 19 20 21 21 20 18 17 17 17 17 16 16 15 14 13 13 13 13 14 15
42 41 39 38 36 35 36 37 38 39 39 38 36 34 32 30 27 26 25 25 26 26 26 25 24 22 22 20 17 15 16 17 16 15 14 13 12 12 13 13 15 18 20 21 23 27 31 33 35 36 37 40 41 38 32 30 29 28 27 25 22 20 19 19 20 21 22 22 21 19 18 18 18 18 18 18 17 15 14 14 14 14 15 15 16
41 40 39 38 37 36 35 35 36 36 36 35 33 30 29 28 27 26 24 24 24 25 25 24 22 20 19 18 15 12 11 12 12 12 11 11 10 11 12 13 14 17 20 21 23 26 29 31 33 35 37 38 38 35 31 29 29 27 26 24 22 21 21 21 22 22 22 22 21 19 19 19 19 20 20 18 16 15 15 15 15 15 16 16 17
41 40 38 37 37 37 36 34 34 34 34 33 31 28 26 26 26 26 25 24 23 23 22 22 20 18 17 15 13 11 8 8 9 9 9 9 9 10 11 12 14 16 17 18 21 23 26 29 31 33 36 36 35 33 31 30 28 26 24 23 22 21 21 22 23 23 23 22 21 20 20 20 21 21 20 18 17 16 16 16 16 16 16 16 17
42 41 39 37 37 37 36 34 32 32 32 32 30 28 26 25 25 25 24 24 22 21 20 19 18 17 15 14 13 11 9 8 8 8 8 8 9 10 12 15 16 17 17 18 18 20 22 25 27 30 32 32 32 32 31 29 27 25 24 23 23 22 22 22 22 23 22 22 21 20 21 21 22 21 20 19 18 17 17 16 16 16 16 17 18
43 42 40 37 36 35 35 34 33 31 32 32 30 29 27 25 24 23 23 22 21 19 18 17 16 15 14 13 12 11 10 9 9 10 10 10 11 13 15 16 18 18 18 18 18 18 20 22 24 26 28 29 29 29 28 26 25 24 23 22 21 21 21 21 22 22 22 21 21 21 22 22 22 21 20 19 18 18 17 17 17 17 18 18 19
43 42 40 37 35 34 34 34 33 32 31 31 31 30 28 26 24 23 22 21 19 17 15 15 14 14 14 13 13 12 12 11 11 11 12 12 13 14 15 16 17 17 17 18 18 18 19 21 22 24 25 26 26 26 25 24 24 23 21 20 20 20 20 20 21 21 21 21 22 22 22 22 21 20 20 19 18 18 18 18 18 18 18 19 20
42 41 39 36 35 34 34 34 33 32 31 31 31 30 29 27 25 23 22 21 18 16 15 15 15 15 14 14 14 15 15 14 13 13 13 14 15 17 17 17 17 17 17 18 19 19 20 21 22 23 24 24 24 23 23 22 21 20 19 19 20 20 20 21 22 23 23 23 23 23 22 22 21 20 20 19 19 19 19 19 19 19 19 20 20
40 41 39 36 34 33 33 33 32 31 30 31 31 30 29 28 25 23 22 21 19 17 16 18 18 17 15 14 15 16 17 16 16 16 16 18 19 20 20 20 20 19 18 19 20 20 21 21 22 22 23 22 22 22 21 20 19 18 18 19 20 21 21 22 23 23 23 22 22 22 22 21 20 20 20 20 19 19 19 20 20 20 20 21 21
39 40 38 36 34 33 32 31 31 30 29 30 30 29 28 27 25 23 23 22 20 18 19 20 20 17 15 14 14 15 17 17 18 19 19 21 22 21 21 21 21 20 20 20 20 20 20 20 21 22 22 21 21 20 20 19 18 18 19 19 20 21 22 23 23 23 22 22 22 22 22 21 21 21 21 20 20 20 20 20 21 21 21 21 21
37 38 38 36 33 32 31 30 30 29 27 28 29 29 27 26 24 22 23 22 20 19 21 22 20 17 16 15 14 15 16 17 18 19 21 21 22 21 21 20 20 20 20 19 19 18 18 19 20 20 20 19 19 19 19 19 19 19 20 20 21 22 23 23 23 22 22 22 23 22 22 22 22 22 22 21 21 21 21 21 21 21 21 21 21
35 36 36 35 33 31 30 30 29 27 26 27 28 28 26 24 22 22 22 22 21 20 21 21 19 17 16 15 15 15 16 17 18 20 21 22 22 22 21 21 21 20 19 19 18 17 17 17 17 17 18 18 17 17 18 18 19 19 20 21 22 22 23 22 22 22 22 23 23 23 23 23 23 23 22 22 22 22 21 21 20 20 21 21 21
35 34 34 34 32 30 29 29 27 27 26 26 27 27 26 23 21 21 21 22 22 21 20 18 16 15 14 14 14 15 16 17 19 20 21 22 22 22 21 20 19 18 17 17 17 16 16 16 15 15 16 17 17 17 18 18 19 19 20 21 21 21 21 21 21 22 22 23 23 23 24 24 24 24 23 23 22 21 21 20 20 20 21 21 22
34 33 33 32 30 29 28 26 26 26 25 25 26 27 26 23 20 20 20 21 22 21 19 16 14 13 14 14 15 16 17 18 18 19 20 20 20 20 19 17 16 14 15 15 15 15 15 15 14 14 15 16 16 17 18 18 19 19 20 20 20 20 20 20 21 22 23 24 24 24 24 24 24 23 22 21 21 21 21 21 21 21 22 22 23
31 31 31 30 29 28 26 24 24 25 24 23 24 25 24 22 20 19 19 21 21 19 16 13 12 12 13 13 15 16 16 17 18 18 18 18 17 17 16 15 14 13 13 13 14 14 14 14 14 14 14 15 16 17 18 18 19 19 19 19 20 20 21 22 23 23 24 25 25 24 23 23 22 22 21 21 21 21 22 22 22 22 23 23 23
29 28 28 27 27 26 24 23 22 23 23 22 21 22 22 21 20 19 19 19 18 15 13 12 13 13 13 13 14 15 16 16 16 16 16 16 15 15 15 14 13 13 13 13 13 14 14 14 14 14 15 16 16 17 18 19 19 19 20 20 20 21 22 23 24 24 24 24 24 23 22 22 22 22 22 22 22 22 22 22 22 22 23 22 22
28 27 25 25 25 24 22 21 21 21 22 22 21 20 21 20 20 20 20 18 16 14 13 14 14 13 13 13 14 14 14 14 14 14 14 14 14 14 13 13 13 13 13 13 14 14 14 14 15 15 15 16 17 17 18 19 19 20 20 20 21 22 22 23 23 23 23 23 23 23 23 23 22 22 22 21 21 22 22 22 22 22 22 22 22
26 26 24 23 23 22 20 19 19 19 20 21 22 21 20 20 20 21 19 17 15 15 15 15 15 14 14 14 14 14 14 14 14 14 14 14 14 13 13 13 13 14 14 14 14 14 15 15 15 15 16 16 17 18 18 19 19 20 20 20 21 21 21 21 21 21 22 22 22 22 22 22 21 21 21 21 21 21 22 22 22 22 22 22 22
23 23 22 21 20 19 17 17 17 18 19 20 21 21 20 19 20 20 17 15 15 16 16 16 16 16 15 15 15 15 15 15 15 15 15 15 15 14 14 14 14 14 14 15 15 15 15 15 15 16 16 17 18 18 19 19 19 19 19 20 20 20 20 21 21 21 22 22 22 21 22 21 21 21 20 20 21 21 22 22 22 23 23 23 22
19 20 19 18 17 16 15 14 15 16 17 19 20 19 18 19 19 18 16 15 15 16 16 16 16 16 16 16 16 16 16 16 16 15 15 15 15 15 15 14 14 14 14 14 14 15 15 15 16 16 17 17 18 18 18 18 19 19 19 20 20 20 20 21 21 21 22 21 21 21 21 21 21 21 20 20 21 21 21 22 22 22 22 22 22
16 15 15 15 14 13 12 12 13 15 16 18 18 18 17 17 17 16 15 15 15 16 16 16 17 17 17 17 17 17 17 16 16 15 15 15 15 14 14 14 14 14 14 14 15 15 15 16 16 16 17 17 18 18 18 18 19 19 19 20 20 20 20 20 20 21 21 21 21 21 21 21 20 20 20 20 20 21 21 21 22 22 22 22 22
Wind_Direction
327 323 320 321 322 320 314 303 291 281 274 268 264 262 262 262 261 261 262 262 265 266 267 267 268 269 270 271 271 272 273 274 276 277 276 277 275 271 267 260 251 248 250 255 258 260 264 265 264 264 265 268 271 272 270 266 262 259 258 260 260 258 259 261 265 267 265 263 261 259 256 249 238 230 222 217 216 216 215 216 219 224 231 238 243
318 313 311 309 310 312 313 310 301 291 283 277 272 269 267 266 265 265 263 263 265 267 267 268 268 269 270 271 272 273 274 276 276 277 278 280 279 276 272 266 258 251 250 252 255 258 262 264 266 265 265 268 272 272 270 266 261 258 259 261 260 259 261 265 267 264 259 258 257 252 249 240 228 222 215 210 211 212 213 217 222 229 235 240 246
313 309 306 304 303 304 306 310 306 297 289 283 279 276 275 274 273 272 270 269 270 270 270 270 269 269 270 271 273 274 275 276 277 277 279 280 281 280 277 273 266 257 252 251 252 256 260 263 265 265 265 269 272 271 269 265 260 259 259 260 260 262 265 267 265 260 255 253 251 247 245 236 222 213 207 205 208 212 216 221 227 233 238 243 249
312 307 304 302 301 301 302 305 305 302 297 289 282 280 280 281 281 282 281 280 279 278 278 277 275 273 272 272 273 274 275 276 277 278 279 280 281 281 279 277 271 262 256 253 254 255 257 260 263 264 267 270 271 270 268 265 262 261 260 259 261 263 264 265 263 257 252 248 246 244 241 227 213 208 207 208 210 214 220 224 229 235 240 246 251
316 312 307 303 301 301 300 301 302 304 304 300 293 286 283 284 285 285 286 285 284 284 283 282 280 278 277 276 275 275 276 276 276 278 279 279 280 281 280 278 273 265 257 253 254 256 258 260 263 264 267 270 270 269 268 267 264 262 258 257 261 263 263 263 260 254 248 244 242 239 227 215 211 212 215 215 214 217 222 225 229 237 242 247 251
319 319 315 311 309 307 305 303 301 300 300 300 298 293 288 286 286 286 287 287 286 285 283 282 280 280 279 278 278 277 276 276 275 277 278 277 278 279 279 278 274 267 259 254 253 255 258 259 261 262 264 267 268 268 268 267 265 263 259 258 261 263 263 261 255 249 245 241 238 232 220 215 217 216 215 215 217 219 221 225 230 237 243 246 248
321 319 317 316 317 318 315 312 307 303 299 296 294 291 289 287 285 285 285 285 284 284 283 281 279 278 278 277 277 278 276 275 275 276 277 277 277 277 279 278 275 268 261 254 252 254 257 258 259 260 261 263 265 265 266 267 267 265 262 261 263 263 262 258 250 245 240 234 229 225 220 218 217 214 213 215 217 217 219 225 232 237 240 243 245
326 322 319 318 319 320 320 320 317 312 308 302 297 293 290 287 285 284 282 281 281 282 283 282 279 276 275 275 276 276 276 275 275 277 277 277 277 277 278 278 274 267 259 253 251 253 255 257 259 261 262 263 264 264 265 265 265 265 263 262 262 260 257 252 245 239 234 227 223 220 217 216 214 213 213 213 213 215 220 226 231 235 239 242 246
328 325 324 323 323 322 322 321 319 316 314 311 306 300 294 291 288 286 283 282 282 282 283 284 282 278 275 274 274 275 276 276 276 277 277 276 276 277 277 276 272 265 256 252 251 252 254 255 258 261 262 262 263 264 264 261 260 261 260 260 258 255 252 247 240 232 225 220 218 213 211 215 215 211 209 209 211 216 222 226 229 233 238 243 251
325 324 324 324 324 323 321 319 317 316 316 315 311 306 301 297 293 289 286 285 284 284 284 285 284 281 278 276 274 274 275 277 277 277 276 275 275 275 275 274 271 264 256 252 250 251 254 255 257 259 260 262 264 263 262 260 259 258 256 256 256 254 248 240 233 227 222 217 211 206 207 211 212 207 205 209 213 217 222 228 231 235 239 246 256
320 318 318 319 319 319 318 317 316 316 316 316 313 310 306 302 300 297 293 291 288 287 285 284 284 284 281 278 276 275 276 277 276 275 274 273 272 273 273 273 270 264 257 253 252 251 253 256 258 260 261 262 263 262 260 259 257 256 255 254 256 255 249 238 229 224 219 211 203 202 204 204 202 201 204 212 217 220 227 233 238 242 246 254 263
316 313 312 312 311 312 312 312 312 313 313 313 312 311 308 305 304 303 299 296 293 290 288 286 285 284 282 279 277 276 276 276 276 274 273 272 271 271 272 271 269 264 257 253 253 254 256 258 259 260 261 262 262 261 259 257 254 252 252 251 251 249 247 243 238 231 220 207 200 201 198 194 194 199 205 213 219 225 233 240 244 248 254 264 270
317 313 311 309 307 307 307 306 307 307 308 308 308 308 307 306 306 305 302 298 294 291 291 290 288 285 283 280 278 277 277 276 275 273 272 271 269 269 269 269 267 263 257 253 252 256 259 261 262 263 263 262 261 258 255 253 251 247 242 240 239 234 231 234 238 238 227 210 199 196 192 189 195 201 207 216 224 232 239 241 245 253 261 267 270
319 317 314 313 311 309 306 303 303 303 303 304 303 303 304 304 303 303 302 298 294 291 290 290 289 286 283 281 280 278 277 276 275 273 271 269 267 266 267 266 264 260 254 251 252 255 257 259 264 267 265 262 260 256 251 248 245 238 231 228 224 219 220 222 221 220 214 202 193 190 190 195 202 205 213 223 231 237 239 239 246 258 264 264 265
318 318 317 318 317 315 310 306 304 302 301 299 299 299 299 300 300 300 300 298 295 293 290 289 289 287 285 282 281 279 278 277 274 271 269 267 265 265 265 264 262 257 252 251 253 255 256 259 264 266 263 261 259 255 251 247 240 232 224 218 212 211 214 212 202 197 196 191 186 187 193 200 208 215 223 229 230 231 234 240 250 257 259 259 262
316 317 316 317 318 317 315 312 308 305 303 300 298 297 297 297 299 299 299 297 295 293 291 289 288 287 285 282 279 278 277 275 273 269 267 265 263 263 262 259 257 254 251 250 252 254 255 258 261 261 258 256 255 253 251 245 235 225 215 208 205 206 205 197 189 186 185 183 183 187 195 205 215 224 229 228 227 229 235 242 247 250 254 259 262
316 316 315 315 316 316 316 315 312 310 307 303 300 299 298 299 300 301 300 297 295 293 292 291 289 287 284 281 279 277 276 273 270 268 265 263 262 262 258 254 254 253 251 251 252 255 257 257 257 257 253 249 247 248 246 238 228 218 210 203 198 197 193 188 184 179 176 179 185 191 200 210 220 226 227 226 227 233 238 239 242 248 254 260 263
318 316 315 315 316 316 316 315 314 312 309 306 302 299 298 298 299 300 301 299 297 295 292 291 288 286 284 282 279 277 275 272 268 264 261 260 261 259 255 253 253 253 252 253 254 256 256 254 252 251 249 246 245 243 240 232 223 215 206 197 192 190 187 183 178 175 176 182 188 196 207 219 226 227 227 227 230 234 235 237 243 249 255 260 262
319 318 317 316 316 316 316 315 314 313 311 309 304 300 298 297 297 298 299 299 298 295 292 289 287 286 283 281 278 275 273 270 265 261 259 258 257 256 253 251 251 251 252 254 255 253 250 249 250 249 246 244 243 239 234 227 219 211 201 192 188 186 182 178 175 175 180 188 198 211 224 231 232 230 227 227 227 228 232 238 244 249 253 258 261
320 319 317 317 316 315 315 314 313 312 312 311 308 304 300 297 297 297 297 297 297 295 293 290 287 285 282 279 276 273 270 267 263 260 259 256 253 251 250 249 249 250 252 253 253 251 249 250 251 248 242 239 236 232 227 221 214 206 196 188 185 181 177 175 175 178 188 202 215 228 235 236 233 227 224 223 224 228 235 241 246 249 251 254 261
320 318 317 316 315 314 312 312 312 312 312 311 310 307 304 300 297 296 297 297 295 294 292 290 287 284 281 277 274 270 268 265 262 260 256 252 249 249 250 250 249 249 250 251 252 251 250 251 249 245 241 235 228 223 220 216 207 197 187 182 180 178 174 173 177 188 205 217 228 237 239 235 227 221 218 220 223 229 236 241 246 249 250 254 262
318 317 317 316 314 313 311 310 310 310 311 311 310 309 306 302 299 297 297 297 296 293 291 288 285 282 279 275 273 270 267 264 261 256 252 248 248 251 253 252 248 247 247 248 249 248 248 248 245 242 236 228 220 214 211 204 193 185 179 176 174 174 175 182 195 208 219 228 240 245 240 229 221 218 217 218 224 230 236 240 244 246 249 256 269
317 316 316 315 314 313 310 309 309 309 310 310 310 309 308 305 301 298 297 297 296 294 290 287 283 280 277 274 271 267 264 263 260 254 250 248 249 252 254 252 248 244 243 243 244 244 245 245 244 238 230 222 211 200 192 186 181 178 177 173 172 177 187 200 213 222 230 240 247 245 235 223 218 217 215 218 225 230 234 238 240 243 251 265 282
317 317 317 315 314 312 310 309 309 310 310 310 310 310 309 306 303 300 298 297 296 294 291 287 283 279 276 273 268 265 263 263 260 253 249 248 249 251 252 249 243 238 236 237 239 241 243 244 241 230 218 207 194 184 180 178 176 176 175 174 179 189 200 210 222 230 238 247 248 240 229 220 216 215 215 220 226 229 233 237 241 249 262 276 286
318 318 318 317 315 313 310 309 309 311 312 311 311 310 309 307 304 301 298 296 295 294 291 287 283 279 276 272 269 266 264 259 254 250 248 248 248 247 246 243 239 237 237 238 239 240 238 234 224 213 200 188 180 177 176 177 177 177 177 181 190 199 207 218 229 238 247 253 247 234 224 218 214 213 216 221 225 229 233 239 247 262 276 282 287
318 318 318 318 316 314 311 309 309 311 312 312 312 311 309 306 303 300 298 296 295 293 291 287 283 279 277 275 273 269 262 254 250 248 247 246 245 243 241 240 239 238 237 236 235 230 221 209 203 195 184 177 177 177 176 176 177 178 182 191 198 205 214 227 238 248 256 254 240 226 219 216 213 214 219 224 227 231 235 241 252 265 276 283 288
317 317 317 318 317 314 312 309 309 310 311 312 312 310 308 305 301 299 297 296 294 293 290 288 285 282 280 279 276 269 259 254 250 247 245 244 241 238 235 232 231 229 227 224 220 209 196 189 188 184 178 177 179 180 178 177 179 183 189 196 203 211 223 234 244 251 253 244 228 219 217 214 213 217 222 227 231 234 238 243 251 261 270 277 284
315 315 316 316 315 314 312 309 309 311 311 311 311 309 307 303 300 298 296 294 291 289 287 286 285 285 283 281 278 271 262 256 253 249 247 243 237 231 226 222 220 219 216 212 202 189 179 176 178 180 180 180 182 183 182 183 187 192 197 201 207 217 229 237 243 245 240 228 219 217 216 215 216 220 225 230 235 238 242 245 250 260 269 275 281
312 312 313 314 314 313 311 310 310 311 310 310 309 307 305 302 299 297 295 290 286 283 282 280 279 280 280 279 277 273 269 264 258 251 246 241 235 230 226 222 219 214 208 199 187 176 170 172 177 181 182 182 185 187 189 191 195 198 202 207 214 223 233 239 243 245 237 226 220 218 218 217 220 224 228 233 238 241 246 249 253 261 268 274 280
308 309 310 310 311 310 309 309 310 310 310 309 307 305 303 300 298 296 293 287 281 277 275 274 273 273 275 276 276 274 271 268 262 252 243 235 231 228 225 224 218 207 197 189 181 174 172 175 181 184 182 183 188 191 192 195 198 200 205 212 219 228 235 240 243 240 231 225 223 222 220 220 224 229 232 237 240 244 249 252 256 262 268 272 276
302 304 305 306 306 307 307 307 308 309 309 308 306 303 301 298 296 293 291 287 280 274 271 269 268 269 270 270 272 271 269 266 261 253 243 232 225 221 219 218 212 202 195 189 184 180 178 180 184 186 185 187 191 194 194 196 200 205 210 216 223 231 238 242 241 233 225 223 224 223 221 224 229 233 236 238 241 245 250 255 260 263 266 269 272
297 299 300 301 302 303 303 304 305 306 306 305 304 302 300 300 299 297 294 291 285 279 274 270 267 266 266 264 262 263 265 261 256 249 240 229 221 215 212 211 206 200 197 194 189 186 185 186 187 188 189 191 193 195 198 202 206 212 217 222 229 237 242 242 236 228 224 225 226 226 226 229 234 236 239 240 242 247 252 256 259 261 263 266 270
296 296 297 298 299 300 300 302 302 302 302 302 301 299 299 300 300 299 296 291 286 281 277 273 267 264 262 257 247 239 246 252 250 246 239 228 215 206 206 204 200 198 197 195 193 192 191 191 191 190 192 194 196 199 204 209 213 219 225 230 238 245 244 237 228 223 224 227 228 228 230 234 237 239 242 244 247 251 254 255 256 259 262 267 271
294 293 294 296 297 297 297 298 299 299 299 298 297 296 297 297 297 295 292 288 283 279 275 271 265 259 253 244 227 213 213 227 233 235 235 225 206 197 196 190 190 197 201 201 200 199 197 195 194 193 195 197 201 205 210 215 220 226 232 238 244 244 238 230 224 223 225 228 229 231 233 236 240 242 244 247 250 253 255 257 259 262 265 268 270
291 290 291 293 295 295 296 296 296 296 295 294 294 294 293 291 291 290 288 285 280 276 271 266 258 248 236 221 205 190 184 192 200 203 209 206 194 189 188 182 183 193 200 201 203 205 203 201 199 199 201 203 207 212 216 221 228 234 241 246 245 237 228 225 225 226 228 231 233 236 238 240 243 245 247 249 252 254 257 259 261 264 265 266 268
292 289 289 291 293 295 296 295 293 292 291 291 291 289 287 285 284 282 281 278 274 270 267 261 247 229 213 198 184 170 169 178 181 179 181 184 185 190 191 190 191 195 197 197 200 205 207 208 206 207 209 212 215 219 225 231 237 243 247 247 240 229 224 225 227 230 233 235 238 240 241 243 245 247 249 252 254 257 259 260 261 262 264 265 268
292 290 290 291 294 295 296 294 291 289 289 288 287 285 282 280 278 275 272 269 265 263 259 249 230 210 196 183 170 163 165 170 171 174 177 178 187 198 200 198 200 199 196 196 199 202 206 210 212 213 216 220 224 230 235 239 243 245 244 237 229 224 225 228 231 234 236 238 240 241 243 245 247 249 252 254 256 258 260 261 262 264 265 265 266
292 290 289 291 293 294 293 292 289 286 285 285 283 281 279 276 272 269 265 261 258 254 245 229 213 200 192 181 170 166 167 168 170 175 178 182 194 206 209 207 208 207 202 200 202 204 206 211 214 218 223 228 233 237 240 241 241 238 232 226 223 224 228 231 234 237 239 241 243 245 246 248 251 253 255 257 258 259 260 261 262 264 264 264 266
291 288 287 289 291 291 290 288 285 282 282 282 280 278 276 272 267 263 258 254 250 244 230 216 205 199 194 188 179 174 174 176 179 183 186 191 201 209 212 212 214 215 212 210 211 212 214 218 222 227 232 235 238 238 236 234 232 227 224 224 227 230 233 236 239 242 244 246 248 250 251 252 255 256 258 260 260 261 262 262 263 264 265 266 268
290 287 285 286 288 289 288 285 281 278 278 279 277 275 272 268 263 259 253 249 246 238 224 213 207 203 200 198 195 191 189 190 192 194 197 201 207 212 215 216 218 219 220 221 223 225 228 232 234 237 238 238 237 234 230 226 224 224 225 228 231 234 237 240 243 246 249 251 252 254 255 257 259 260 261 262 262 262 262 263 264 265 266 268 269
289 286 284 285 286 288 287 283 278 276 276 277 275 272 268 264 259 255 251 247 244 237 224 216 212 210 207 208 209 208 207 207 206 206 208 210 214 218 221 222 223 224 225 227 230 233 236 239 240 239 238 237 235 232 229 228 228 229 231 233 235 238 242 245 248 251 253 255 257 259 261 262 262 262 262 263 262 262 262 264 266 268 269 270 271
287 285 284 284 286 286 284 280 276 274 275 274 272 268 265 261 255 251 248 245 241 234 226 219 215 214 214 216 218 219 219 218 217 217 217 219 221 225 227 228 229 230 231 232 233 235 237 238 238 236 234 233 233 232 232 233 234 234 235 237 240 243 247 250 253 256 258 260 262 264 264 263 262 262 262 262 262 263 265 267 269 270 271 271 271
286 284 283 284 285 284 280 277 275 273 272 272 271 266 260 255 251 249 247 245 239 233 227 222 220 220 221 222 225 226 225 225 225 225 226 227 228 230 233 235 236 236 236 234 233 233 233 235 234 232 232 232 233 234 235 236 236 238 240 243 246 250 253 257 259 261 262 263 263 262 262 261 262 262 262 263 265 267 269 272 273 273 272 271 270
284 284 283 284 284 282 277 273 272 270 269 270 269 263 256 252 250 247 244 240 235 230 226 226 227 228 228 227 227 228 227 227 228 228 228 230 232 233 234 235 235 233 230 227 226 225 227 230 232 234 236 237 238 240 240 240 241 243 246 249 252 255 258 260 261 261 261 261 261 261 262 262 264 266 267 269 272 273 274 275 274 271 270 268 268
284 283 283 283 283 279 275 271 269 267 265 265 263 260 255 252 247 241 236 233 229 226 225 229 232 234 235 235 234 232 229 228 227 227 227 229 230 230 230 230 228 227 225 224 225 226 229 233 237 239 240 241 241 242 242 243 245 247 249 252 254 256 257 259 259 260 262 262 263 264 265 267 270 273 275 276 276 276 274 273 271 269 269 270 270
284 283 283 283 281 278 274 269 265 263 262 259 257 254 251 247 240 232 227 225 221 219 221 226 229 231 232 232 233 232 230 229 229 229 230 230 228 227 227 227 227 228 228 228 230 233 236 240 242 244 244 244 244 245 246 247 249 251 252 254 256 257 258 260 261 262 264 265 267 269 272 275 276 277 277 276 274 274 273 273 272 272 273 272 272
286 284 282 280 278 275 271 266 262 260 258 255 250 246 242 238 230 222 217 214 211 212 218 222 224 224 223 222 224 226 227 229 231 230 230 228 226 226 228 229 230 232 232 232 235 237 239 242 244 245 246 246 246 247 249 250 252 253 255 256 258 259 260 262 264 266 269 272 275 276 277 277 277 276 275 275 275 275 275 275 275 274 274 273 272
288 286 283 280 275 271 267 262 259 257 256 252 246 241 237 232 224 217 212 206 205 211 217 220 220 219 217 217 219 221 224 228 228 227 227 227 227 228 230 231 231 233 234 235 238 241 243 246 248 248 248 249 249 250 252 253 254 256 258 259 261 263 266 268 272 275 276 276 277 276 276 276 277 277 276 277 276 276 275 275 275 275 274 274 274
290 288 285 280 274 268 263 259 256 256 254 249 244 238 233 227 220 213 208 205 208 213 217 218 218 216 214 213 216 220 224 227 227 226 226 227 227 227 228 228 230 232 235 238 241 244 245 247 248 249 249 250 251 252 254 256 257 260 262 265 267 270 272 274 275 276 276 276 277 277 278 278 278 278 277 277 276 276 275 275 275 275 275 275 275
292 289 286 280 272 266 260 256 255 254 250 245 241 237 230 223 216 210 205 206 210 213 215 216 215 213 211 212 215 219 223 224 224 224 224 224 225 226 227 228 231 235 238 241 243 245 245 246 248 249 250 252 254 256 259 261 263 265 267 269 271 272 274 275 275 275 276 276 276 277 278 278 278 278 278 278 277 276 276 275 275 275 275 276 276
296 292 287 280 271 263 257 253 251 249 245 240 236 232 226 219 214 209 205 206 209 212 213 214 212 210 210 212 214 217 219 221 221 222 222 222 224 226 229 232 235 237 239 241 243 244 246 248 250 253 255 258 260 262 264 265 266 268 269 270 272 273 274 274 275 275 275 275 276 277 278 279 279 279 279 278 277 277 276 276 276 276 276 277 276
Height
1508 1507 1506 1505 1505 1504 1504 1504 1503 1503 1504 1503 1503 1502 1502 1501 1501 1500 1500 1500 1500 1498 1498 1498 1497 1496 1496 1495 1494 1493 1493 1492 1492 1491 1490 1488 1488 1487 1487 1486 1486 1486 1488 1488 1489 1490 1489 1489 1489 1490 1491 1491 1490 1490 1490 1490 1491 1491 1492 1494 1494 1496 1497 1496 1494 1492 1492 1493 1495 1497 1498 1499 1501 1503 1505 1508 1511 1514 1516 1518 1519 1519 1520 1520 1520
1506 1505 1505 1504 1503 1502 1501 1501 1501 1500 1500 1500 1500 1500 1499 1499 1498 1497 1497 1497 1497 1495 1495 1494 1493 1493 1492 1491 1490 1489 1489 1488 1487 1487 1485 1484 1483 1483 1483 1482 1481 1482 1482 1483 1484 1485 1486 1485 1485 1486 1487 1487 1486 1486 1485 1486 1487 1487 1488 1489 1490 1491 1493 1492 1491 1489 1489 1489 1491 1493 1495 1496 1498 1500 1502 1505 1508 1511 1513 1514 1515 1516 1517 1517 1517
1504 1503 1502 1502 1501 1500 1499 1498 1498 1497 1497 1497 1497 1497 1496 1496 1495 1495 1494 1494 1493 1492 1492 1491 1490 1489 1488 1487 1486 1485 1485 1484 1483 1483 1482 1480 1479 1479 1478 1478 1477 1476 1477 1477 1479 1481 1481 1481 1481 1482 1483 1482 1481 1481 1481 1482 1482 1483 1484 1484 1485 1486 1488 1488 1487 1486 1485 1486 1488 1490 1492 1493 1495 1498 1500 1503 1506 1508 1510 1511 1512 1513 1514 1515 1515
1502 1501 1500 1499 1499 1498 1497 1496 1495 1494 1493 1493 1492 1493 1493 1492 1492 1491 1491 1490 1490 1489 1489 1488 1486 1485 1484 1483 1482 1481 1481 1480 1479 1479 1478 1476 1475 1474 1474 1473 1472 1472 1472 1472 1474 1475 1476 1476 1476 1478 1478 1477 1477 1477 1477 1478 1478 1479 1479 1480 1481 1482 1483 1483 1483 1482 1482 1483 1485 1487 1489 1491 1493 1496 1498 1500 1502 1504 1506 1508 1510 1511 1512 1513 1513
1500 1499 1498 1497 1497 1496 1495 1494 1493 1492 1491 1490 1489 1489 1488 1488 1487 1487 1487 1486 1485 1485 1485 1484 1482 1481 1480 1479 1478 1477 1476 1476 1475 1474 1473 1472 1471 1470 1469 1468 1468 1467 1467 1468 1469 1470 1471 1471 1472 1473 1473 1472 1472 1473 1473 1474 1474 1475 1475 1476 1477 1477 1478 1478 1478 1478 1479 1480 1482 1484 1486 1488 1490 1493 1495 1497 1499 1501 1504 1506 1507 1509 1510 1510 1511
1498 1497 1496 1495 1495 1494 1493 1492 1491 1489 1488 1487 1486 1485 1484 1484 1483 1483 1482 1481 1480 1480 1479 1478 1477 1476 1475 1474 1473 1473 1472 1471 1470 1469 1469 1468 1467 1466 1465 1464 1463 1463 1463 1463 1464 1465 1466 1466 1467 1468 1468 1468 1468 1469 1469 1470 1470 1470 1471 1471 1472 1473 1473 1473 1474 1474 1475 1477 1479 1481 1483 1485 1487 1490 1492 1494 1497 1499 1501 1503 1505 1506 1507 1508 1508
1496 1495 1494 1493 1492 1492 1491 1490 1488 1487 1485 1484 1483 1482 1481 1480 1479 1478 1477 1476 1475 1474 1473 1473 1472 1470 1470 1469 1468 1468 1467 1466 1465 1464 1463 1463 1462 1461 1460 1459 1458 1458 1458 1459 1460 1460 1461 1461 1462 1462 1463 1463 1464 1464 1465 1465 1466 1466 1467 1468 1468 1468 1469 1469 1469 1470 1471 1473 1475 1478 1480 1482 1485 1487 1489 1492 1494 1496 1498 1500 1501 1503 1504 1504 1505
1494 1493 1492 1491 1490 1489 1488 1487 1486 1484 1482 1481 1480 1478 1477 1476 1475 1474 1472 1471 1470 1469 1468 1467 1466 1465 1464 1463 1462 1462 1461 1460 1460 1459 1458 1457 1456 1456 1455 1454 1454 1453 1453 1454 1455 1455 1455 1456 1457 1457 1458 1459 1460 1460 1461 1461 1461 1462 1463 1463 1463 1464 1464 1464 1465 1466 1468 1470 1472 1475 1477 1479 1481 1484 1486 1489 1491 1493 1495 1497 1499 1500 1500 1501 1502
1491 1490 1489 1488 1487 1486 1485 1483 1482 1480 1478 1477 1476 1475 1473 1472 1470 1469 1467 1466 1465 1464 1462 1461 1460 1459 1458 1458 1457 1456 1455 1455 1455 1454 1453 1452 1451 1450 1450 1449 1449 1448 1449 1449 1450 1450 1451 1451 1452 1453 1454 1455 1456 1456 1457 1457 1457 1458 1458 1459 1459 1459 1459 1460 1461 1462 1464 1467 1469 1471 1473 1475 1478 1480 1483 1486 1488 1491 1493 1494 1495 1496 1497 1498 1500
1488 1487 1486 1485 1484 1482 1481 1479 1477 1476 1474 1473 1471 1470 1468 1467 1465 1464 1463 1462 1460 1459 1457 1455 1454 1454 1453 1453 1452 1451 1450 1450 1451 1450 1449 1448 1446 1445 1445 1444 1444 1444 1444 1444 1445 1445 1446 1447 1448 1449 1450 1451 1452 1452 1453 1453 1453 1454 1454 1454 1454 1455 1455 1456 1458 1459 1461 1463 1465 1467 1470 1473 1476 1479 1482 1485 1487 1489 1490 1491 1492 1493 1495 1496 1497
1485 1484 1483 1482 1480 1478 1476 1474 1473 1471 1470 1469 1467 1465 1463 1461 1460 1459 1458 1457 1455 1454 1452 1450 1449 1448 1448 1447 1447 1446 1446 1446 1447 1446 1445 1444 1443 1441 1440 1440 1439 1439 1439 1439 1440 1441 1442 1443 1443 1444 1445 1446 1447 1448 1449 1449 1450 1450 1450 1450 1451 1451 1453 1454 1456 1458 1459 1461 1464 1466 1469 1472 1476 1479 1482 1483 1485 1486 1487 1488 1489 1491 1492 1494 1495
1483 1482 1481 1479 1477 1475 1473 1471 1469 1468 1467 1465 1463 1461 1459 1457 1456 1454 1453 1451 1450 1448 1446 1445 1444 1443 1443 1442 1441 1441 1441 1442 1442 1442 1441 1440 1439 1437 1436 1435 1434 1434 1435 1435 1436 1437 1438 1439 1439 1440 1440 1442 1443 1444 1444 1445 1445 1446 1447 1447 1449 1450 1452 1453 1455 1457 1458 1460 1463 1466 1469 1472 1475 1477 1479 1481 1482 1483 1485 1486 1487 1489 1490 1491 1492
1483 1481 1479 1478 1476 1474 1471 1469 1466 1464 1463 1462 1460 1458 1456 1455 1453 1451 1449 1447 1445 1443 1442 1440 1439 1438 1437 1436 1436 1436 1436 1436 1437 1437 1436 1435 1435 1433 1432 1431 1430 1430 1431 1432 1433 1434 1435 1435 1435 1436 1437 1438 1438 1439 1440 1440 1441 1442 1443 1445 1447 1449 1452 1453 1455 1456 1458 1460 1463 1466 1469 1472 1474 1475 1477 1478 1479 1481 1482 1484 1485 1487 1488 1489 1489
1482 1480 1477 1476 1474 1472 1469 1466 1464 1462 1460 1458 1456 1454 1452 1451 1449 1448 1446 1443 1441 1439 1438 1436 1435 1434 1432 1432 1431 1430 1430 1431 1432 1432 1431 1431 1430 1429 1428 1426 1426 1426 1427 1428 1429 1430 1431 1432 1432 1432 1433 1434 1434 1435 1436 1436 1437 1438 1440 1442 1444 1447 1450 1452 1454 1456 1459 1461 1464 1467 1469 1471 1473 1474 1475 1476 1478 1479 1481 1483 1484 1484 1485 1486 1486
1479 1477 1474 1473 1471 1468 1466 1463 1461 1459 1457 1455 1453 1451 1449 1447 1445 1443 1441 1439 1437 1435 1433 1432 1431 1429 1428 1428 1427 1426 1426 1427 1427 1427 1426 1426 1425 1425 1423 1423 1422 1423 1423 1424 1425 1426 1427 1428 1428 1428 1429 1430 1431 1432 1433 1433 1434 1436 1437 1438 1441 1444 1448 1451 1453 1455 1458 1461 1464 1466 1468 1470 1471 1472 1474 1475 1476 1478 1479 1480 1481 1482 1482 1483 1483
1476 1474 1472 1469 1467 1465 1462 1460 1457 1455 1453 1451 1448 1447 1445 1442 1440 1438 1436 1434 1432 1430 1428 1427 1426 1425 1424 1423 1422 1421 1421 1422 1422 1422 1421 1421 1421 1420 1419 1419 1419 1419 1420 1421 1422 1423 1423 1424 1424 1425 1426 1427 1428 1429 1430 1431 1432 1433 1434 1436 1439 1443 1447 1449 1452 1454 1457 1460 1462 1464 1466 1467 1469 1470 1472 1473 1474 1476 1477 1478 1478 1479 1479 1480 1480
1474 1471 1469 1467 1464 1462 1459 1456 1453 1451 1448 1446 1444 1442 1440 1437 1436 1434 1431 1428 1427 1425 1423 1422 1421 1420 1419 1418 1417 1416 1416 1417 1417 1417 1416 1416 1416 1416 1415 1415 1415 1416 1417 1418 1418 1419 1419 1420 1421 1422 1423 1424 1425 1426 1427 1428 1429 1430 1432 1435 1439 1442 1445 1448 1451 1454 1457 1459 1460 1462 1463 1465 1467 1468 1470 1471 1472 1473 1474 1475 1476 1476 1477 1477 1477
1471 1468 1466 1464 1462 1459 1456 1453 1450 1448 1445 1443 1440 1438 1435 1433 1431 1429 1427 1424 1422 1420 1419 1417 1416 1415 1414 1413 1413 1412 1411 1412 1412 1412 1411 1412 1412 1411 1411 1412 1412 1412 1413 1414 1414 1415 1416 1417 1418 1418 1419 1420 1421 1423 1424 1425 1426 1428 1430 1434 1437 1440 1443 1447 1451 1453 1455 1457 1459 1460 1462 1464 1465 1467 1468 1469 1470 1471 1472 1473 1474 1474 1474 1474 1474
1468 1465 1463 1461 1459 1456 1453 1451 1448 1445 1442 1440 1437 1434 1432 1429 1427 1425 1423 1420 1418 1416 1415 1412 1411 1410 1409 1409 1408 1407 1407 1407 1408 1407 1407 1408 1408 1408 1408 1407 1407 1408 1409 1410 1410 1411 1411 1412 1413 1414 1415 1417 1418 1420 1421 1422 1424 1426 1429 1433 1436 1439 1443 1447 1449 1451 1452 1455 1457 1459 1460 1462 1463 1465 1466 1466 1467 1468 1470 1471 1471 1472 1472 1471 1471
1465 1462 1460 1458 1455 1453 1450 1447 1444 1442 1439 1436 1433 1431 1428 1425 1423 1420 1418 1416 1414 1412 1410 1408 1407 1406 1405 1405 1404 1403 1403 1403 1403 1404 1404 1404 1404 1404 1403 1403 1403 1405 1406 1406 1406 1407 1407 1408 1410 1411 1412 1414 1416 1417 1418 1419 1422 1425 1428 1431 1435 1439 1442 1445 1447 1449 1451 1453 1455 1457 1458 1460 1461 1462 1463 1464 1465 1467 1468 1468 1469 1469 1469 1469 1468
1462 1460 1457 1455 1452 1450 1447 1444 1441 1438 1435 1432 1429 1427 1424 1422 1419 1416 1414 1412 1409 1407 1405 1404 1402 1401 1401 1400 1399 1399 1399 1399 1400 1400 1400 1400 1400 1400 1400 1400 1400 1401 1402 1402 1402 1403 1404 1405 1406 1408 1409 1411 1412 1414 1416 1419 1421 1425 1428 1431 1435 1439 1441 1443 1446 1448 1450 1452 1453 1455 1456 1457 1459 1460 1461 1462 1463 1464 1466 1466 1467 1467 1467 1467 1466
1458 1456 1454 1451 1449 1446 1444 1441 1438 1435 1432 1429 1425 1423 1421 1418 1415 1412 1410 1407 1405 1403 1401 1400 1398 1397 1396 1395 1395 1395 1395 1395 1396 1396 1396 1397 1397 1396 1397 1397 1397 1398 1398 1398 1399 1400 1401 1402 1403 1405 1406 1407 1409 1412 1415 1419 1422 1425 1429 1433 1436 1438 1440 1442 1444 1446 1448 1450 1452 1453 1454 1455 1457 1458 1459 1460 1461 1463 1464 1464 1465 1465 1464 1464 1463
1454 1452 1449 1447 1445 1442 1440 1437 1435 1431 1428 1425 1421 1418 1416 1414 1411 1408 1406 1403 1401 1399 1398 1396 1395 1393 1392 1391 1390 1390 1390 1390 1391 1392 1392 1393 1393 1394 1394 1394 1394 1395 1395 1395 1395 1396 1398 1399 1401 1402 1404 1405 1407 1410 1414 1417 1421 1425 1429 1432 1434 1436 1438 1441 1443 1445 1447 1448 1450 1451 1452 1454 1455 1456 1457 1458 1459 1460 1461 1462 1462 1462 1461 1460 1460
1449 1447 1445 1442 1440 1438 1435 1433 1431 1428 1425 1421 1418 1415 1412 1409 1407 1404 1402 1399 1397 1396 1395 1394 1392 1390 1389 1388 1387 1386 1386 1386 1387 1387 1388 1389 1390 1390 1390 1391 1391 1392 1392 1392 1393 1394 1395 1397 1398 1400 1402 1404 1407 1410 1413 1417 1421 1425 1428 1430 1432 1435 1437 1440 1442 1444 1445 1447 1448 1449 1450 1452 1454 1454 1455 1456 1457 1458 1459 1459 1459 1458 1457 1457 1457
1444 1442 1440 1437 1435 1433 1430 1428 1426 1423 1420 1417 1414 1411 1408 1405 1403 1401 1398 1396 1394 1393 1392 1391 1390 1389 1387 1386 1385 1384 1383 1383 1382 1383 1384 1385 1386 1386 1387 1388 1389 1390 1390 1390 1391 1392 1393 1395 1396 1398 1400 1403 1406 1409 1413 1417 1421 1423 1426 1428 1431 1433 1436 1438 1440 1442 1443 1444 1446 1447 1448 1450 1451 1452 1453 1454 1455 1455 1456 1456 1455 1454 1454 1454 1454
1440 1438 1435 1433 1431 1428 1425 1423 1421 1418 1415 1413 1409 1407 1404 1401 1399 1397 1395 1393 1391 1390 1389 1389 1388 1388 1387 1386 1385 1383 1382 1380 1380 1380 1380 1381 1382 1383 1384 1386 1387 1388 1389 1389 1389 1389 1391 1393 1395 1397 1399 1402 1405 1408 1412 1416 1420 1422 1424 1427 1429 1432 1434 1437 1438 1440 1441 1442 1443 1445 1447 1448 1448 1449 1450 1451 1452 1453 1453 1452 1452 1451 1451 1451 1451
1436 1434 1431 1429 1427 1424 1421 1419 1416 1414 1411 1408 1405 1403 1400 1398 1396 1394 1393 1391 1389 1387 1386 1386 1386 1386 1386 1386 1385 1384 1382 1379 1378 1377 1377 1378 1379 1379 1380 1382 1383 1385 1386 1387 1387 1388 1389 1392 1395 1397 1399 1401 1405 1409 1413 1415 1417 1419 1422 1425 1428 1430 1433 1435 1436 1438 1439 1440 1441 1443 1444 1445 1445 1446 1447 1449 1449 1450 1450 1450 1449 1449 1449 1449 1448
1432 1430 1427 1425 1422 1420 1418 1415 1412 1410 1407 1404 1401 1399 1396 1394 1392 1391 1390 1389 1387 1386 1384 1384 1384 1384 1384 1384 1384 1383 1382 1380 1378 1376 1376 1376 1377 1377 1377 1378 1380 1382 1384 1385 1386 1387 1389 1392 1395 1397 1399 1402 1405 1409 1412 1413 1416 1419 1422 1425 1427 1429 1431 1433 1434 1435 1436 1437 1439 1440 1441 1442 1443 1444 1445 1446 1446 1447 1447 1447 1447 1447 1447 1446 1446
1427 1425 1423 1421 1418 1416 1413 1411 1408 1405 1403 1400 1397 1395 1393 1391 1389 1387 1388 1387 1385 1384 1382 1381 1381 1382 1382 1382 1383 1382 1382 1380 1379 1377 1376 1375 1375 1376 1376 1377 1379 1381 1383 1385 1386 1387 1389 1392 1394 1395 1397 1400 1403 1407 1409 1412 1415 1418 1421 1423 1426 1428 1430 1431 1432 1433 1434 1435 1437 1438 1439 1440 1440 1442 1443 1443 1444 1444 1445 1445 1445 1444 1444 1444 1444
1422 1420 1419 1417 1414 1412 1409 1407 1405 1402 1399 1397 1394 1392 1390 1388 1386 1384 1384 1384 1384 1382 1381 1379 1379 1379 1379 1380 1380 1381 1381 1381 1380 1378 1376 1376 1376 1376 1377 1378 1379 1381 1383 1385 1386 1388 1389 1391 1392 1393 1395 1397 1400 1403 1406 1410 1413 1416 1419 1421 1424 1426 1428 1429 1430 1431 1432 1434 1435 1436 1437 1438 1438 1440 1441 1441 1442 1442 1442 1442 1442 1442 1442 1442 1441
1416 1415 1414 1412 1410 1408 1405 1403 1401 1399 1396 1393 1391 1388 1387 1385 1384 1382 1381 1381 1381 1380 1379 1378 1377 1377 1377 1377 1378 1378 1379 1380 1380 1378 1377 1376 1376 1376 1377 1379 1379 1381 1382 1384 1386 1388 1390 1391 1393 1394 1396 1398 1400 1403 1406 1409 1412 1415 1417 1420 1423 1425 1426 1427 1428 1429 1430 1432 1433 1434 1434 1435 1436 1438 1439 1439 1439 1439 1439 1439 1439 1439 1439 1439 1439
1411 1410 1409 1407 1405 1403 1401 1398 1397 1395 1392 1390 1388 1386 1384 1382 1381 1380 1379 1378 1378 1378 1377 1376 1376 1375 1375 1375 1375 1376 1377 1379 1380 1379 1378 1377 1376 1377 1378 1379 1380 1381 1382 1384 1386 1388 1391 1393 1394 1396 1398 1400 1402 1405 1408 1410 1413 1415 1418 1420 1422 1423 1424 1425 1425 1427 1428 1430 1431 1431 1432 1433 1435 1435 1436 1437 1437 1437 1436 1437 1437 1437 1437 1437 1437
1407 1404 1403 1401 1399 1398 1395 1394 1392 1390 1388 1386 1384 1383 1381 1380 1379 1378 1377 1376 1375 1375 1375 1375 1374 1373 1373 1373 1374 1374 1375 1378 1379 1380 1379 1378 1377 1378 1379 1380 1381 1383 1384 1385 1387 1389 1391 1394 1396 1398 1400 1402 1405 1407 1410 1412 1414 1416 1418 1420 1421 1421 1422 1422 1423 1425 1426 1427 1428 1429 1430 1431 1432 1433 1434 1434 1434 1434 1434 1434 1434 1435 1435 1435 1435
1403 1400 1398 1396 1395 1393 1391 1389 1387 1386 1385 1383 1381 1380 1378 1377 1376 1376 1375 1374 1373 1372 1372 1372 1372 1371 1371 1372 1372 1373 1374 1376 1378 1380 1380 1380 1379 1379 1380 1381 1383 1384 1385 1387 1388 1389 1391 1394 1397 1400 1402 1404 1407 1409 1411 1412 1414 1416 1417 1419 1419 1420 1420 1421 1422 1423 1424 1425 1426 1427 1428 1429 1430 1431 1431 1431 1431 1431 1431 1432 1432 1432 1432 1432 1432
1399 1396 1394 1392 1390 1388 1386 1385 1383 1382 1381 1380 1379 1377 1375 1374 1373 1373 1372 1371 1371 1370 1370 1370 1370 1371 1371 1371 1371 1372 1373 1375 1376 1378 1380 1381 1382 1382 1382 1382 1383 1385 1386 1388 1389 1391 1393 1395 1398 1401 1403 1406 1408 1409 1411 1412 1414 1415 1416 1417 1417 1418 1419 1419 1421 1422 1423 1423 1424 1425 1426 1427 1427 1428 1429 1429 1429 1429 1429 1429 1430 1430 1430 1430 1429
1394 1391 1389 1388 1386 1384 1382 1381 1380 1378 1377 1376 1376 1375 1373 1371 1371 1370 1370 1369 1369 1369 1369 1369 1370 1370 1370 1370 1370 1371 1373 1374 1376 1377 1379 1381 1383 1383 1383 1383 1384 1385 1387 1388 1390 1392 1394 1396 1399 1401 1404 1406 1408 1410 1411 1412 1413 1414 1414 1415 1416 1416 1417 1418 1420 1421 1421 1422 1423 1423 1424 1425 1425 1426 1426 1426 1426 1426 1427 1427 1427 1427 1427 1427 1427
1389 1387 1385 1383 1382 1380 1378 1377 1375 1374 1373 1373 1372 1372 1370 1369 1368 1367 1367 1367 1366 1366 1367 1368 1369 1370 1370 1370 1370 1371 1373 1374 1376 1377 1378 1380 1382 1383 1384 1384 1385 1386 1388 1390 1391 1393 1395 1397 1399 1402 1404 1406 1408 1409 1410 1410 1411 1411 1412 1413 1414 1415 1416 1417 1418 1419 1420 1420 1420 1421 1422 1422 1423 1423 1423 1424 1424 1424 1424 1424 1424 1424 1424 1424 1424
1384 1382 1381 1379 1377 1375 1373 1372 1371 1370 1369 1369 1368 1368 1368 1367 1366 1365 1365 1365 1365 1365 1365 1367 1368 1370 1370 1370 1371 1372 1373 1374 1375 1377 1379 1381 1382 1384 1384 1384 1385 1387 1389 1391 1392 1394 1395 1397 1399 1401 1403 1405 1406 1407 1407 1408 1408 1409 1410 1411 1412 1413 1414 1416 1416 1417 1417 1418 1418 1419 1420 1420 1420 1421 1421 1421 1421 1421 1421 1421 1421 1421 1422 1422 1422
1379 1377 1376 1374 1372 1371 1369 1368 1367 1366 1365 1365 1365 1365 1365 1364 1364 1363 1363 1364 1364 1364 1364 1365 1367 1368 1369 1370 1371 1372 1373 1374 1375 1376 1378 1380 1382 1383 1384 1385 1386 1387 1389 1391 1393 1394 1395 1397 1398 1400 1402 1403 1404 1404 1405 1405 1406 1406 1408 1409 1410 1411 1412 1414 1414 1415 1415 1416 1416 1417 1417 1418 1418 1418 1418 1419 1419 1419 1418 1418 1419 1419 1419 1419 1419
1373 1372 1371 1369 1367 1366 1364 1363 1362 1362 1361 1361 1361 1361 1361 1361 1361 1361 1362 1363 1363 1363 1363 1364 1365 1366 1368 1369 1370 1371 1372 1373 1374 1375 1377 1379 1381 1382 1384 1385 1386 1387 1389 1391 1392 1393 1394 1395 1397 1398 1400 1400 1401 1401 1402 1402 1403 1404 1406 1407 1408 1410 1411 1412 1413 1413 1413 1414 1414 1415 1415 1415 1415 1415 1415 1415 1416 1415 1415 1415 1416 1416 1416 1416 1416
1369 1367 1366 1365 1363 1361 1360 1359 1358 1358 1357 1357 1358 1358 1358 1358 1359 1359 1360 1361 1362 1363 1363 1364 1365 1366 1367 1368 1369 1370 1372 1373 1374 1375 1377 1378 1380 1381 1383 1384 1385 1387 1388 1389 1390 1391 1392 1393 1395 1396 1397 1398 1398 1399 1400 1401 1401 1403 1404 1405 1407 1408 1409 1410 1411 1411 1411 1412 1412 1412 1413 1412 1412 1412 1412 1412 1412 1412 1412 1412 1413 1413 1413 1413 1414
1364 1363 1362 1361 1359 1357 1355 1354 1354 1354 1354 1354 1354 1354 1355 1356 1356 1357 1359 1360 1361 1362 1362 1363 1364 1365 1366 1367 1368 1370 1371 1373 1374 1376 1377 1378 1380 1381 1382 1383 1384 1385 1386 1387 1388 1389 1390 1391 1393 1394 1395 1396 1396 1397 1398 1399 1400 1401 1403 1404 1405 1406 1407 1408 1408 1409 1409 1409 1409 1409 1409 1409 1409 1409 1409 1409 1409 1409 1409 1410 1410 1410 1410 1411 1411
1359 1358 1357 1356 1354 1353 1351 1351 1350 1350 1351 1351 1351 1352 1353 1353 1354 1355 1357 1359 1360 1361 1362 1363 1363 1364 1365 1366 1368 1369 1371 1373 1374 1376 1377 1378 1379 1380 1381 1382 1383 1383 1384 1385 1386 1388 1389 1390 1391 1392 1393 1394 1394 1395 1396 1397 1399 1400 1401 1402 1404 1404 1405 1405 1406 1406 1406 1406 1406 1406 1406 1406 1406 1406 1406 1406 1406 1406 1407 1407 1407 1407 1407 1407 1407
1355 1354 1353 1351 1350 1349 1347 1347 1347 1347 1347 1348 1349 1349 1350 1351 1351 1353 1355 1357 1358 1359 1361 1362 1362 1363 1364 1365 1367 1369 1370 1372 1373 1375 1376 1377 1378 1379 1380 1380 1381 1381 1382 1383 1385 1386 1387 1389 1390 1391 1391 1392 1393 1394 1395 1396 1397 1398 1400 1401 1401 1402 1402 1403 1403 1403 1403 1403 1402 1402 1402 1402 1402 1403 1403 1403 1404 1404 1404 1404 1404 1404 1403 1403 1403
1351 1350 1348 1347 1346 1344 1344 1343 1344 1344 1344 1345 1345 1347 1348 1349 1349 1350 1352 1354 1356 1358 1359 1360 1361 1362 1364 1365 1366 1368 1369 1371 1372 1374 1375 1376 1377 1378 1378 1379 1379 1380 1381 1382 1384 1385 1386 1387 1388 1389 1390 1391 1392 1392 1393 1394 1395 1396 1397 1398 1398 1399 1399 1399 1399 1399 1399 1399 1399 1399 1400 1400 1400 1400 1400 1401 1401 1400 1400 1400 1400 1400 1400 1400 1400
1347 1345 1344 1342 1341 1341 1340 1340 1340 1341 1341 1342 1342 1344 1345 1346 1347 1348 1350 1352 1354 1356 1357 1359 1360 1361 1363 1364 1366 1367 1369 1370 1371 1372 1373 1374 1375 1376 1376 1377 1378 1379 1380 1381 1382 1384 1385 1386 1386 1387 1388 1388 1389 1390 1391 1392 1393 1393 1394 1394 1395 1395 1395 1395 1396 1396 1396 1396 1396 1397 1397 1397 1397 1397 1397 1397 1397 1397 1397 1397 1397 1397 1397 1397 1397
1343 1342 1340 1339 1338 1337 1337 1337 1337 1338 1338 1339 1340 1341 1343 1344 1345 1346 1348 1349 1351 1354 1355 1357 1359 1360 1361 1362 1364 1366 1367 1369 1370 1371 1372 1373 1374 1374 1375 1376 1377 1378 1379 1380 1381 1382 1382 1383 1384 1384 1385 1386 1386 1387 1388 1389 1390 1390 1391 1391 1392 1392 1392 1393 1393 1393 1393 1393 1393 1394 1394 1393 1393 1393 1393 1393 1393 1393 1393 1393 1393 1393 1393 1393 1393
1340 1338 1337 1335 1335 1334 1334 1334 1334 1335 1336 1337 1338 1339 1341 1342 1343 1344 1346 1347 1349 1351 1353 1356 1357 1358 1359 1361 1362 1364 1365 1367 1368 1369 1371 1372 1372 1373 1374 1375 1375 1376 1377 1378 1378 1379 1380 1381 1381 1382 1382 1383 1384 1385 1385 1386 1387 1388 1388 1389 1389 1389 1390 1390 1390 1390 1390 1390 1390 1390 1390 1389 1390 1390 1390 1390 1390 1389 1389 1389 1389 1389 1389 1389 1389
1337 1335 1334 1333 1332 1331 1331 1332 1332 1333 1334 1335 1336 1337 1339 1340 1341 1343 1344 1346 1347 1349 1352 1354 1355 1357 1358 1359 1360 1362 1364 1365 1367 1368 1369 1370 1371 1372 1372 1373 1374 1374 1375 1375 1376 1377 1378 1378 1379 1380 1380 1381 1381 1382 1383 1384 1384 1385 1386 1386 1386 1386 1386 1386 1386 1386 1386 1386 1386 1386 1386 1386 1386 1386 1386 1386 1386 1386 1385 1385 1385 1385 1385 1385 1386
1334 1332 1331 1330 1330 1329 1329 1330 1330 1331 1332 1333 1335 1336 1338 1339 1340 1342 1343 1345 1346 1348 1350 1352 1353 1355 1356 1357 1358 1360 1361 1363 1364 1366 1367 1368 1369 1370 1371 1371 1372 1372 1373 1374 1375 1375 1376 1377 1377 1378 1378 1379 1379 1380 1381 1381 1382 1382 1382 1382 1383 1383 1383 1383 1383 1383 1382 1382 1382 1382 1382 1382 1382 1382 1382 1382 1382 1382 1382 1382 1382 1381 1382 1382 1382
1331 1330 1329 1328 1328 1328 1328 1328 1329 1330 1331 1332 1334 1335 1337 1338 1339 1341 1342 1344 1345 1347 1348 1350 1352 1353 1355 1356 1357 1358 1359 1361 1362 1364 1365 1366 1368 1368 1369 1370 1370 1371 1371 1372 1373 1373 1374 1374 1375 1376 1376 1377 1377 1378 1378 1378 1379 1379 1379 1379 1379 1379 1379 1379 1379 1379 1378 1379 1379 1379 1379 1379 1379 1379 1379 1379 1378 1378 1378 1378 1378 1378 1378 1378 1378